Hourly Weather Barra do Garcas

Today, 8 May, Saturday

Time Temperature Precipitation Wind Pressure Humidity
00:00 +21°C° 0 mm 1 mps 731 mmHg 65%
01:00 +21°C° 0 mm 1 mps 731 mmHg 67%
02:00 +20°C° 0 mm 1 mps 730 mmHg 68%
03:00 +19°C° 0 mm 1 mps 730 mmHg 70%
04:00 +19°C° 0 mm 1 mps 730 mmHg 70%
05:00 +19°C° 0 mm 1 mps 731 mmHg 71%
06:00 +18°C° 0 mm 1 mps 731 mmHg 72%
07:00 +20°C° 0 mm 1 mps 731 mmHg 66%
08:00 +23°C° 0 mm 2 mps 732 mmHg 60%
09:00 +25°C° 0 mm 2 mps 733 mmHg 54%
10:00 +27°C° 0 mm 2 mps 733 mmHg 49%
11:00 +29°C° 0 mm 3 mps 733 mmHg 44%
12:00 +31°C° 0 mm 3 mps 732 mmHg 39%
13:00 +33°C° 0 mm 3 mps 732 mmHg 37%
14:00 +34°C° 0 mm 2 mps 731 mmHg 35%
15:00 +35°C° 0 mm 2 mps 730 mmHg 32%
16:00 +32°C° 0 mm 1 mps 730 mmHg 38%
17:00 +30°C° 0 mm 1 mps 730 mmHg 44%
18:00 +28°C° 0 mm 1 mps 729 mmHg 49%
19:00 +27°C° 0 mm 1 mps 730 mmHg 51%
20:00 +25°C° 0 mm 1 mps 730 mmHg 53%
21:00 +24°C° 0 mm 1 mps 730 mmHg 54%
22:00 +24°C° 0 mm 1 mps 730 mmHg 55%
23:00 +23°C° 0 mm 1 mps 730 mmHg 57%

Tomorrow, 9 May, Sunday

Time Temperature Precipitation Wind Pressure Humidity
00:00 +23°C° 0 mm 1 mps 730 mmHg 58%
01:00 +22°C° 0 mm 1 mps 730 mmHg 59%
02:00 +22°C° 0 mm 1 mps 730 mmHg 60%
03:00 +21°C° 0 mm 1 mps 729 mmHg 61%
04:00 +21°C° 0 mm 1 mps 730 mmHg 61%
05:00 +21°C° 0 mm 1 mps 730 mmHg 61%
06:00 +20°C° 0 mm 1 mps 730 mmHg 61%
07:00 +23°C° 0 mm 1 mps 730 mmHg 56%
08:00 +25°C° 0 mm 1 mps 731 mmHg 51%
09:00 +27°C° 0 mm 1 mps 732 mmHg 46%
10:00 +29°C° 0 mm 2 mps 732 mmHg 42%
11:00 +31°C° 0 mm 2 mps 732 mmHg 38%
12:00 +34°C° 0 mm 3 mps 731 mmHg 35%
13:00 +34°C° 0 mm 2 mps 731 mmHg 34%
14:00 +35°C° 0 mm 2 mps 730 mmHg 33%
15:00 +35°C° 0 mm 2 mps 729 mmHg 33%
16:00 +34°C° 0 mm 2 mps 729 mmHg 38%
17:00 +31°C° 0 mm 1 mps 729 mmHg 43%
18:00 +29°C° 0 mm 1 mps 729 mmHg 48%
19:00 +28°C° 0 mm 1 mps 729 mmHg 49%
20:00 +27°C° 0 mm 1 mps 729 mmHg 50%
21:00 +26°C° 0 mm 1 mps 730 mmHg 51%
22:00 +26°C° 0 mm 1 mps 730 mmHg 51%
23:00 +25°C° 0 mm 1 mps 730 mmHg 51%

Day after tomorrow, 10 May, Monday

Time Temperature Precipitation Wind Pressure Humidity
00:00 +23°C° 0 mm 0 mps 730 mmHg 52%
01:00 +23°C° 0 mm 0 mps 730 mmHg 53%
02:00 +23°C° 0 mm 0 mps 729 mmHg 54%
03:00 +24°C° 0 mm 1 mps 729 mmHg 55%
04:00 +24°C° 0 mm 1 mps 729 mmHg 57%
05:00 +23°C° 0 mm 1 mps 730 mmHg 59%
06:00 +23°C° 0 mm 1 mps 730 mmHg 61%
07:00 +25°C° 0 mm 1 mps 730 mmHg 57%
08:00 +27°C° 0 mm 1 mps 731 mmHg 54%
09:00 +28°C° 0 mm 1 mps 732 mmHg 50%
10:00 +30°C° 0 mm 2 mps 732 mmHg 45%
11:00 +32°C° 0 mm 2 mps 731 mmHg 40%
12:00 +35°C° 0 mm 3 mps 731 mmHg 35%
13:00 +35°C° 0 mm 3 mps 731 mmHg 34%
14:00 +35°C° 0 mm 2 mps 730 mmHg 33%
15:00 +36°C° 0 mm 2 mps 729 mmHg 32%
16:00 +34°C° 0 mm 2 mps 729 mmHg 36%
17:00 +31°C° 0 mm 1 mps 729 mmHg 41%
18:00 +29°C° 0 mm 1 mps 729 mmHg 46%
19:00 +28°C° 0 mm 1 mps 729 mmHg 47%
20:00 +25°C° 0 mm 0 mps 729 mmHg 47%
21:00 +24°C° 0 mm 0 mps 729 mmHg 48%
22:00 +24°C° 0 mm 0 mps 729 mmHg 50%
23:00 +23°C° 0 mm 0 mps 729 mmHg 51%

11 May, Tuesday

Time Temperature Precipitation Wind Pressure Humidity
00:00 +25°C° 0 mm 1 mps 729 mmHg 53%
01:00 +24°C° 0 mm 1 mps 729 mmHg 54%
02:00 +24°C° 0 mm 1 mps 729 mmHg 54%
03:00 +24°C° 0 mm 1 mps 729 mmHg 55%
04:00 +23°C° 0 mm 1 mps 729 mmHg 57%
05:00 +23°C° 0 mm 1 mps 729 mmHg 59%
06:00 +22°C° 0 mm 1 mps 729 mmHg 62%
07:00 +24°C° 0 mm 1 mps 730 mmHg 57%
08:00 +25°C° 0 mm 1 mps 730 mmHg 52%
09:00 +27°C° 0 mm 1 mps 731 mmHg 48%
10:00 +29°C° 0 mm 2 mps 731 mmHg 43%
11:00 +31°C° 0 mm 2 mps 730 mmHg 39%
12:00 +34°C° 0 mm 2 mps 730 mmHg 34%
13:00 +34°C° 0 mm 2 mps 729 mmHg 33%
14:00 +35°C° 0 mm 2 mps 728 mmHg 31%
15:00 +36°C° 0 mm 2 mps 728 mmHg 29%
16:00 +33°C° 0 mm 1 mps 728 mmHg 34%
17:00 +31°C° 0 mm 1 mps 728 mmHg 39%
18:00 +29°C° 0 mm 1 mps 727 mmHg 45%
19:00 +28°C° 0 mm 1 mps 728 mmHg 45%
20:00 +27°C° 0 mm 1 mps 728 mmHg 46%
21:00 +24°C° 0 mm 0 mps 728 mmHg 46%
22:00 +25°C° 0 mm 1 mps 728 mmHg 48%
23:00 +25°C° 0 mm 1 mps 728 mmHg 50%

12 May, Wednesday

Time Temperature Precipitation Wind Pressure Humidity
00:00 +24°C° 0 mm 1 mps 728 mmHg 51%
01:00 +23°C° 0 mm 1 mps 728 mmHg 54%
02:00 +21°C° 0 mm 0 mps 728 mmHg 57%
03:00 +20°C° 0 mm 0 mps 728 mmHg 60%
04:00 +19°C° 0 mm 0 mps 728 mmHg 61%
05:00 +19°C° 0 mm 0 mps 728 mmHg 62%
06:00 +19°C° 0 mm 0 mps 729 mmHg 63%
07:00 +21°C° 0 mm 0 mps 729 mmHg 58%
08:00 +23°C° 0 mm 0 mps 730 mmHg 54%
09:00 +25°C° 0 mm 0 mps 731 mmHg 49%
10:00 +27°C° 0 mm 0 mps 731 mmHg 44%
11:00 +29°C° 0 mm 0 mps 730 mmHg 39%
12:00 +32°C° 0 mm 0 mps 730 mmHg 33%
13:00 +34°C° 0 mm 1 mps 730 mmHg 32%
14:00 +35°C° 0 mm 1 mps 729 mmHg 30%
15:00 +35°C° 0 mm 1 mps 728 mmHg 28%
16:00 +33°C° 0 mm 1 mps 728 mmHg 33%
17:00 +31°C° 0 mm 1 mps 728 mmHg 39%
18:00 +29°C° 0 mm 1 mps 728 mmHg 44%
19:00 +26°C° 0 mm 0 mps 728 mmHg 46%
20:00 +25°C° 0 mm 0 mps 728 mmHg 48%
21:00 +24°C° 0 mm 0 mps 729 mmHg 49%
22:00 +23°C° 0 mm 0 mps 729 mmHg 51%
23:00 +25°C° 0 mm 1 mps 729 mmHg 52%

13 May, Thursday

Time Temperature Precipitation Wind Pressure Humidity
00:00 +24°C° 0 mm 1 mps 729 mmHg 53%
01:00 +24°C° 0 mm 1 mps 728 mmHg 54%
02:00 +23°C° 0 mm 1 mps 728 mmHg 55%
03:00 +23°C° 0 mm 1 mps 728 mmHg 56%
04:00 +22°C° 0 mm 1 mps 728 mmHg 58%
05:00 +22°C° 0 mm 1 mps 729 mmHg 60%
06:00 +21°C° 0 mm 1 mps 729 mmHg 62%
07:00 +23°C° 0 mm 1 mps 730 mmHg 57%
08:00 +25°C° 0 mm 1 mps 730 mmHg 52%
09:00 +27°C° 0 mm 1 mps 731 mmHg 47%
10:00 +29°C° 0 mm 2 mps 731 mmHg 42%
11:00 +31°C° 0 mm 2 mps 730 mmHg 38%
12:00 +34°C° 0 mm 2 mps 730 mmHg 34%
13:00 +35°C° 0 mm 2 mps 730 mmHg 32%
14:00 +35°C° 0 mm 2 mps 729 mmHg 31%
15:00 +35°C° 0 mm 1 mps 728 mmHg 29%
16:00 +33°C° 0 mm 1 mps 728 mmHg 34%
17:00 +31°C° 0 mm 1 mps 728 mmHg 38%
18:00 +29°C° 0 mm 1 mps 728 mmHg 43%
19:00 +28°C° 0 mm 1 mps 728 mmHg 44%
20:00 +27°C° 0 mm 1 mps 728 mmHg 45%
21:00 +24°C° 0 mm 0 mps 729 mmHg 46%
22:00 +24°C° 0 mm 0 mps 729 mmHg 48%
23:00 +23°C° 0 mm 0 mps 729 mmHg 50%
Show more